Time,TemperatureF,DewpointF,PressureIn,WindDirection,WindDirectionDegrees,WindSpeedMPH,WindSpeedGustMPH,Humidity,HourlyPrecipIn,Conditions,Clouds,dailyrainin,SoftwareType,DateUTC
2013-02-22 00:00:00,71.7,64.9,29.89,SSW,195,0.0,4.0,79,0.00,CLR,,0.00,WeatherDisplay:10.37,2013-02-21 13:00:00,
2013-02-22 00:05:00,71.4,64.6,29.89,South,172,0.0,6.0,79,0.00,CLR,,0.00,WeatherDisplay:10.37,2013-02-21 13:05:00,
2013-02-22 00:10:00,71.4,64.6,29.88,SE,145,0.0,0.0,79,0.00,CLR,,0.00,WeatherDisplay:10.37,2013-02-21 13:10:00,
2013-02-22 00:15:00,71.4,64.6,29.88,South,173,0.0,2.0,79,0.00,CLR,,0.00,WeatherDisplay:10.37,2013-02-21 13:15:00,
2013-02-22 00:20:00,71.4,64.6,29.88,SSE,160,1.0,4.0,79,0.00,CLR,,0.00,WeatherDisplay:10.37,2013-02-21 13:20:00,
2013-02-22 00:25:00,71.4,64.6,29.88,SE,130,0.0,4.0,79,0.00,CLR,,0.00,WeatherDisplay:10.37,2013-02-21 13:25:00,
2013-02-22 00:30:00,71.4,64.2,29.89,ENE,72,0.0,5.0,78,0.00,CLR,,0.00,WeatherDisplay:10.37,2013-02-21 13:30:00,
2013-02-22 00:35:00,71.4,64.2,29.88,SSW,207,1.0,6.0,78,0.00,CLR,,0.00,WeatherDisplay:10.37,2013-02-21 13:35:00,
2013-02-22 00:40:00,71.4,63.8,29.88,SW,220,0.0,4.0,77,0.00,CLR,,0.00,WeatherDisplay:10.37,2013-02-21 13:40:00,
2013-02-22 00:45:00,71.4,63.8,29.88,South,188,1.0,4.0,77,0.00,CLR,,0.00,WeatherDisplay:10.37,2013-02-21 13:45:00,
2013-02-22 00:50:00,71.4,63.8,29.88,South,190,0.0,3.0,77,0.00,CLR,,0.00,WeatherDisplay:10.37,2013-02-21 13:50:00,
2013-02-22 00:55:00,71.4,63.5,29.88,SSW,204,0.0,6.0,76,0.00,CLR,,0.00,WeatherDisplay:10.37,2013-02-21 13:55:00,
2013-02-22 01:00:00,71.4,63.5,29.88,SW,226,0.0,6.0,76,0.00,CLR,,0.00,WeatherDisplay:10.37,2013-02-21 14:00:00,
2013-02-22 01:05:00,71.4,63.5,29.88,South,185,0.0,2.0,76,0.00,CLR,,0.00,WeatherDisplay:10.37,2013-02-21 14:05:00,
2013-02-22 01:10:00,71.4,63.5,29.88,SSE,166,0.0,1.0,76,0.00,CLR,,0.00,WeatherDisplay:10.37,2013-02-21 14:10:00,
2013-02-22 01:15:00,71.2,63.3,29.87,South,172,0.0,2.0,76,0.00,CLR,,0.00,WeatherDisplay:10.37,2013-02-21 14:15:00,
2013-02-22 01:20:00,71.2,63.3,29.87,SSE,162,0.0,5.0,76,0.00,CLR,,0.00,WeatherDisplay:10.37,2013-02-21 14:20:00,
2013-02-22 01:25:00,71.2,63.3,29.87,SE,145,0.0,0.0,76,0.00,CLR,,0.00,WeatherDisplay:10.37,2013-02-21 14:25:00,
2013-02-22 01:30:00,71.2,63.7,29.87,East,90,0.0,0.0,77,0.00,CLR,,0.00,WeatherDisplay:10.37,2013-02-21 14:30:00,
2013-02-22 01:35:00,71.1,63.5,29.87,ESE,111,0.0,0.0,77,0.00,CLR,,0.00,WeatherDisplay:10.37,2013-02-21 14:35:00,
2013-02-22 01:40:00,71.0,63.4,29.87,ESE,108,0.0,0.0,77,0.00,CLR,,0.00,WeatherDisplay:10.37,2013-02-21 14:40:00,
2013-02-22 01:45:00,71.0,63.8,29.87,SE,127,0.0,0.0,78,0.00,CLR,,0.00,WeatherDisplay:10.37,2013-02-21 14:45:00,
2013-02-22 01:50:00,70.9,63.7,29.86,South,184,0.0,1.0,78,0.00,CLR,,0.00,WeatherDisplay:10.37,2013-02-21 14:50:00,
2013-02-22 01:55:00,70.9,63.7,29.87,South,188,0.0,1.0,78,0.00,CLR,,0.00,WeatherDisplay:10.37,2013-02-21 14:55:00,
2013-02-22 02:00:00,70.9,63.7,29.86,South,184,0.0,7.0,78,0.00,CLR,,0.00,WeatherDisplay:10.37,2013-02-21 15:00:00,
2013-02-22 02:05:00,70.9,64.0,29.86,South,172,1.0,4.0,79,0.00,CLR,,0.00,WeatherDisplay:10.37,2013-02-21 15:05:00,
2013-02-22 02:10:00,70.9,64.0,29.86,SE,141,1.0,2.0,79,0.00,CLR,,0.00,WeatherDisplay:10.37,2013-02-21 15:10:00,
2013-02-22 02:15:00,71.1,64.2,29.86,South,170,0.0,2.0,79,0.00,CLR,,0.00,WeatherDisplay:10.37,2013-02-21 15:15:00,
2013-02-22 02:20:00,71.1,64.2,29.86,South,178,1.0,5.0,79,0.00,CLR,,0.00,WeatherDisplay:10.37,2013-02-21 15:20:00,
2013-02-22 02:25:00,71.2,64.4,29.86,South,176,1.0,5.0,79,0.00,CLR,,0.00,WeatherDisplay:10.37,2013-02-21 15:25:00,
2013-02-22 02:30:00,71.2,64.4,29.85,South,187,0.0,5.0,79,0.00,CLR,,0.00,WeatherDisplay:10.37,2013-02-21 15:30:00,
2013-02-22 02:35:00,71.2,64.4,29.86,SSE,166,7.0,13.0,79,0.00,CLR,,0.00,WeatherDisplay:10.37,2013-02-21 15:35:00,
2013-02-22 02:40:00,71.2,64.4,29.86,South,181,2.0,9.0,79,0.00,CLR,,0.00,WeatherDisplay:10.37,2013-02-21 15:40:00,
2013-02-22 02:45:00,71.2,64.0,29.86,SSW,194,3.0,9.0,78,0.00,CLR,,0.00,WeatherDisplay:10.37,2013-02-21 15:45:00,
2013-02-22 02:50:00,71.2,64.0,29.86,South,170,5.0,7.0,78,0.00,CLR,,0.00,WeatherDisplay:10.37,2013-02-21 15:50:00,
2013-02-22 02:55:00,71.1,64.2,29.86,South,180,6.0,11.0,79,0.00,CLR,,0.00,WeatherDisplay:10.37,2013-02-21 15:55:00,
2013-02-22 03:00:00,70.9,63.7,29.86,SSW,198,5.0,9.0,78,0.00,CLR,,0.00,WeatherDisplay:10.37,2013-02-21 16:00:00,
2013-02-22 03:05:00,70.9,63.7,29.85,SSW,192,3.0,9.0,78,0.00,CLR,,0.00,WeatherDisplay:10.37,2013-02-21 16:05:00,
2013-02-22 03:10:00,70.8,63.6,29.85,SSW,193,3.0,10.0,78,0.00,CLR,,0.00,WeatherDisplay:10.37,2013-02-21 16:10:00,
2013-02-22 03:15:00,70.7,63.5,29.85,SSW,201,2.0,6.0,78,0.00,CLR,,0.00,WeatherDisplay:10.37,2013-02-21 16:15:00,
2013-02-22 03:20:00,70.7,63.5,29.85,SW,218,1.0,4.0,78,0.00,CLR,,0.00,WeatherDisplay:10.37,2013-02-21 16:20:00,
2013-02-22 03:25:00,70.7,63.5,29.85,South,179,0.0,6.0,78,0.00,CLR,,0.00,WeatherDisplay:10.37,2013-02-21 16:25:00,
2013-02-22 03:30:00,70.7,63.9,29.85,SW,231,3.0,9.0,79,0.00,CLR,,0.00,WeatherDisplay:10.37,2013-02-21 16:30:00,
2013-02-22 03:35:00,70.7,63.5,29.85,SSW,195,1.0,6.0,78,0.00,CLR,,0.00,WeatherDisplay:10.37,2013-02-21 16:35:00,
2013-02-22 03:40:00,70.5,63.3,29.85,SSE,167,0.0,5.0,78,0.00,CLR,,0.00,WeatherDisplay:10.37,2013-02-21 16:40:00,
2013-02-22 03:50:00,70.5,63.3,29.84,South,170,0.0,5.0,78,0.00,CLR,,0.00,WeatherDisplay:10.37,2013-02-21 16:50:00,
2013-02-22 03:55:00,70.5,63.0,29.84,South,185,1.0,5.0,77,0.00,CLR,,0.00,WeatherDisplay:10.37,2013-02-21 16:55:00,
2013-02-22 04:00:00,70.5,63.0,29.85,SSE,162,1.0,3.0,77,0.00,CLR,,0.00,WeatherDisplay:10.37,2013-02-21 17:00:00,
2013-02-22 04:05:00,70.5,63.3,29.84,ESE,103,0.0,5.0,78,0.00,CLR,,0.00,WeatherDisplay:10.37,2013-02-21 17:05:00,
2013-02-22 04:10:00,70.5,63.3,29.84,ENE,73,0.0,0.0,78,0.02,RA,,0.02,WeatherDisplay:10.37,2013-02-21 17:10:00,
2013-02-22 04:15:00,70.5,63.7,29.84,ESE,119,0.0,4.0,79,0.00,RA,,0.02,WeatherDisplay:10.37,2013-02-21 17:15:00,
2013-02-22 04:20:00,70.3,63.9,29.84,South,184,1.0,5.0,80,0.00,,,0.02,WeatherDisplay:10.37,2013-02-21 17:20:00,
2013-02-22 04:25:00,70.3,63.9,29.84,SSW,205,2.0,5.0,80,0.00,,,0.02,WeatherDisplay:10.37,2013-02-21 17:25:00,
2013-02-22 04:30:00,70.3,63.9,29.84,South,178,1.0,3.0,80,0.00,,,0.02,WeatherDisplay:10.37,2013-02-21 17:30:00,
2013-02-22 04:35:00,70.3,64.2,29.84,SSE,168,1.0,7.0,81,0.00,,,0.02,WeatherDisplay:10.37,2013-02-21 17:35:00,
2013-02-22 04:40:00,70.3,64.2,29.84,SSW,202,1.0,6.0,81,0.00,,,0.02,WeatherDisplay:10.37,2013-02-21 17:40:00,
2013-02-22 04:45:00,70.4,64.3,29.84,SW,220,1.0,5.0,81,0.00,,,0.02,WeatherDisplay:10.37,2013-02-21 17:45:00,
2013-02-22 04:50:00,70.5,64.4,29.84,South,180,1.0,8.0,81,0.00,,,0.02,WeatherDisplay:10.37,2013-02-21 17:50:00,
2013-02-22 04:55:00,70.5,64.4,29.84,South,169,2.0,6.0,81,0.00,,,0.02,WeatherDisplay:10.37,2013-02-21 17:55:00,
2013-02-22 05:00:00,70.5,64.4,29.84,South,178,0.0,7.0,81,0.00,,,0.02,WeatherDisplay:10.37,2013-02-21 18:00:00,
2013-02-22 05:05:00,70.5,64.4,29.84,SSW,193,1.0,4.0,81,0.00,,,0.02,WeatherDisplay:10.37,2013-02-21 18:05:00,
2013-02-22 05:10:00,70.5,64.4,29.84,South,189,1.0,5.0,81,0.00,CLR,,0.02,WeatherDisplay:10.37,2013-02-21 18:10:00,
2013-02-22 05:15:00,70.5,64.4,29.84,South,182,1.0,9.0,81,0.00,CLR,,0.02,WeatherDisplay:10.37,2013-02-21 18:15:00,
2013-02-22 05:20:00,70.5,64.0,29.84,South,173,0.0,6.0,80,0.00,CLR,,0.02,WeatherDisplay:10.37,2013-02-21 18:20:00,
2013-02-22 05:25:00,70.5,64.0,29.84,SSE,147,1.0,4.0,80,0.00,CLR,,0.02,WeatherDisplay:10.37,2013-02-21 18:25:00,
2013-02-22 05:30:00,70.4,64.0,29.85,ENE,77,1.0,6.0,80,0.00,CLR,,0.02,WeatherDisplay:10.37,2013-02-21 18:30:00,
2013-02-22 05:35:00,70.5,64.0,29.85,ESE,114,0.0,3.0,80,0.00,CLR,,0.02,WeatherDisplay:10.37,2013-02-21 18:35:00,
2013-02-22 05:40:00,70.5,63.7,29.85,SSE,154,2.0,6.0,79,0.00,CLR,,0.02,WeatherDisplay:10.37,2013-02-21 18:40:00,
2013-02-22 05:45:00,70.5,63.7,29.85,SE,137,1.0,5.0,79,0.00,CLR,,0.02,WeatherDisplay:10.37,2013-02-21 18:45:00,
2013-02-22 05:50:00,70.4,64.0,29.84,SE,131,2.0,6.0,80,0.00,CLR,,0.02,WeatherDisplay:10.37,2013-02-21 18:50:00,
2013-02-22 05:55:00,70.5,63.7,29.85,ESE,122,1.0,3.0,79,0.00,CLR,,0.02,WeatherDisplay:10.37,2013-02-21 18:55:00,
2013-02-22 06:00:00,70.5,63.7,29.84,South,174,1.0,5.0,79,0.00,CLR,,0.02,WeatherDisplay:10.37,2013-02-21 19:00:00,
2013-02-22 06:05:00,70.5,63.7,29.85,South,178,1.0,5.0,79,0.00,CLR,,0.02,WeatherDisplay:10.37,2013-02-21 19:05:00,
2013-02-22 06:10:00,70.5,63.7,29.85,South,179,0.0,4.0,79,0.00,CLR,,0.02,WeatherDisplay:10.37,2013-02-21 19:10:00,
2013-02-22 06:15:00,70.5,63.7,29.85,SSE,167,0.0,3.0,79,0.00,CLR,,0.02,WeatherDisplay:10.37,2013-02-21 19:15:00,
2013-02-22 06:20:00,70.5,63.7,29.85,SE,144,3.0,6.0,79,0.00,CLR,,0.02,WeatherDisplay:10.37,2013-02-21 19:20:00,
2013-02-22 06:25:00,70.5,63.3,29.85,ESE,115,1.0,4.0,78,0.00,CLR,,0.02,WeatherDisplay:10.37,2013-02-21 19:25:00,
2013-02-22 06:30:00,70.5,63.3,29.85,ESE,103,0.0,2.0,78,0.00,CLR,,0.02,WeatherDisplay:10.37,2013-02-21 19:30:00,
2013-02-22 06:35:00,70.5,63.3,29.85,SSE,153,1.0,9.0,78,0.00,CLR,,0.02,WeatherDisplay:10.37,2013-02-21 19:35:00,
2013-02-22 06:40:00,70.4,63.2,29.85,SSW,198,1.0,13.0,78,0.00,CLR,,0.02,WeatherDisplay:10.37,2013-02-21 19:40:00,
2013-02-22 06:45:00,70.5,63.3,29.86,SSE,156,3.0,13.0,78,0.00,CLR,,0.02,WeatherDisplay:10.37,2013-02-21 19:45:00,
2013-02-22 06:50:00,70.5,63.3,29.86,South,169,3.0,7.0,78,0.00,CLR,,0.02,WeatherDisplay:10.37,2013-02-21 19:50:00,
2013-02-22 06:55:00,70.5,63.3,29.87,SSW,204,2.0,7.0,78,0.00,CLR,,0.02,WeatherDisplay:10.37,2013-02-21 19:55:00,
2013-02-22 07:00:00,70.5,63.3,29.86,WNW,286,2.0,9.0,78,0.00,CLR,,0.02,WeatherDisplay:10.37,2013-02-21 20:00:00,
2013-02-22 07:05:00,70.5,63.3,29.87,SW,222,6.0,12.0,78,0.00,CLR,,0.02,WeatherDisplay:10.37,2013-02-21 20:05:00,
2013-02-22 07:10:00,70.5,63.3,29.87,SSW,199,2.0,10.0,78,0.00,CLR,,0.02,WeatherDisplay:10.37,2013-02-21 20:10:00,
2013-02-22 07:15:00,70.5,63.3,29.87,South,180,2.0,7.0,78,0.00,CLR,,0.02,WeatherDisplay:10.37,2013-02-21 20:15:00,
2013-02-22 07:20:00,70.5,63.3,29.87,South,189,1.0,5.0,78,0.00,CLR,,0.02,WeatherDisplay:10.37,2013-02-21 20:20:00,
2013-02-22 07:25:00,70.5,63.3,29.87,South,175,1.0,10.0,78,0.00,CLR,,0.02,WeatherDisplay:10.37,2013-02-21 20:25:00,
2013-02-22 07:30:00,70.5,63.3,29.87,South,182,2.0,8.0,78,0.00,CLR,,0.02,WeatherDisplay:10.37,2013-02-21 20:30:00,
2013-02-22 07:35:00,70.6,63.4,29.87,South,183,2.0,4.0,78,0.00,CLR,,0.02,WeatherDisplay:10.37,2013-02-21 20:35:00,
2013-02-22 07:40:00,70.8,63.9,29.87,South,170,5.0,10.0,79,0.00,CLR,,0.02,WeatherDisplay:10.37,2013-02-21 20:40:00,
2013-02-22 07:45:00,70.9,63.7,29.87,SE,142,1.0,10.0,78,0.00,CLR,,0.02,WeatherDisplay:10.37,2013-02-21 20:45:00,
2013-02-22 07:50:00,71.0,63.8,29.87,East,95,1.0,7.0,78,0.00,CLR,,0.02,WeatherDisplay:10.37,2013-02-21 20:50:00,
2013-02-22 07:55:00,71.2,64.0,29.87,NE,50,1.0,6.0,78,0.00,CLR,,0.02,WeatherDisplay:10.37,2013-02-21 20:55:00,
2013-02-22 08:00:00,71.4,64.2,29.87,SSW,198,2.0,6.0,78,0.00,CLR,,0.02,WeatherDisplay:10.37,2013-02-21 21:00:00,
2013-02-22 08:05:00,71.4,64.2,29.87,South,181,2.0,11.0,78,0.00,CLR,,0.02,WeatherDisplay:10.37,2013-02-21 21:05:00,
2013-02-22 08:10:00,71.4,64.2,29.87,SSW,192,1.0,7.0,78,0.00,CLR,,0.02,WeatherDisplay:10.37,2013-02-21 21:10:00,
2013-02-22 08:15:00,71.8,64.5,29.87,East,100,1.0,6.0,78,0.00,CLR,,0.02,WeatherDisplay:10.37,2013-02-21 21:15:00,
2013-02-22 08:20:00,71.8,64.6,29.88,East,85,2.0,5.0,78,0.00,CLR,,0.02,WeatherDisplay:10.37,2013-02-21 21:20:00,
2013-02-22 08:25:00,72.0,64.4,29.88,East,79,1.0,6.0,77,0.00,CLR,,0.02,WeatherDisplay:10.37,2013-02-21 21:25:00,
2013-02-22 08:30:00,72.1,64.5,29.88,South,179,1.0,8.0,77,0.00,CLR,,0.02,WeatherDisplay:10.37,2013-02-21 21:30:00,
2013-02-22 08:35:00,72.3,64.7,29.88,SSW,209,1.0,6.0,77,0.00,CLR,,0.02,WeatherDisplay:10.37,2013-02-21 21:35:00,
2013-02-22 08:40:00,72.5,64.9,29.88,South,184,1.0,6.0,77,0.00,CLR,,0.02,WeatherDisplay:10.37,2013-02-21 21:40:00,
2013-02-22 08:45:00,72.7,65.1,29.88,SSW,212,1.0,6.0,77,0.00,CLR,,0.02,WeatherDisplay:10.37,2013-02-21 21:45:00,
2013-02-22 08:50:00,73.0,65.4,29.88,South,175,3.0,7.0,77,0.00,CLR,,0.02,WeatherDisplay:10.37,2013-02-21 21:50:00,
2013-02-22 08:55:00,73.0,65.4,29.88,ENE,75,2.0,12.0,77,0.00,CLR,,0.02,WeatherDisplay:10.37,2013-02-21 21:55:00,
2013-02-22 09:00:00,73.2,65.6,29.88,ENE,66,3.0,7.0,77,0.00,CLR,,0.02,WeatherDisplay:10.37,2013-02-21 22:00:00,
2013-02-22 09:05:00,73.3,65.3,29.89,ENE,64,0.0,7.0,76,0.00,CLR,,0.02,WeatherDisplay:10.37,2013-02-21 22:05:00,
2013-02-22 09:10:00,73.7,65.3,29.89,SSE,159,3.0,9.0,75,0.00,CLR,,0.02,WeatherDisplay:10.37,2013-02-21 22:10:00,
2013-02-22 09:15:00,73.9,65.5,29.89,SE,140,0.0,5.0,75,0.00,CLR,,0.02,WeatherDisplay:10.37,2013-02-21 22:15:00,
2013-02-22 09:20:00,74.2,65.8,29.89,ENE,75,1.0,6.0,75,0.00,CLR,,0.02,WeatherDisplay:10.37,2013-02-21 22:20:00,
2013-02-22 09:25:00,74.7,65.9,29.89,South,191,2.0,12.0,74,0.00,CLR,,0.02,WeatherDisplay:10.37,2013-02-21 22:25:00,
2013-02-22 09:30:00,75.0,66.2,29.89,South,177,2.0,3.0,74,0.00,CLR,,0.02,WeatherDisplay:10.37,2013-02-21 22:30:00,
2013-02-22 09:35:00,75.4,66.1,29.88,ESE,110,2.0,4.0,73,0.00,CLR,,0.02,WeatherDisplay:10.37,2013-02-21 22:35:00,
2013-02-22 09:40:00,75.6,66.3,29.88,NE,51,3.0,13.0,73,0.00,CLR,,0.02,WeatherDisplay:10.37,2013-02-21 22:40:00,
2013-02-22 09:45:00,75.6,65.9,29.89,NNE,23,5.0,9.0,72,0.00,CLR,,0.02,WeatherDisplay:10.37,2013-02-21 22:45:00,
2013-02-22 09:50:00,75.6,65.9,29.88,SE,141,5.0,8.0,72,0.00,CLR,,0.02,WeatherDisplay:10.37,2013-02-21 22:50:00,
2013-02-22 09:55:00,75.6,65.9,29.89,SE,130,2.0,7.0,72,0.00,CLR,,0.02,WeatherDisplay:10.37,2013-02-21 22:55:00,
2013-02-22 10:00:00,75.7,66.5,29.88,East,90,3.0,6.0,73,0.00,CLR,,0.02,WeatherDisplay:10.37,2013-02-21 23:00:00,
2013-02-22 10:05:00,76.1,66.8,29.88,NE,56,2.0,10.0,73,0.00,CLR,,0.02,WeatherDisplay:10.37,2013-02-21 23:05:00,
2013-02-22 10:10:00,76.3,66.6,29.89,ENE,69,2.0,10.0,72,0.00,CLR,,0.02,WeatherDisplay:10.37,2013-02-21 23:10:00,
2013-02-22 10:15:00,76.1,66.0,29.90,ENE,74,3.0,17.0,71,0.00,CLR,,0.02,WeatherDisplay:10.37,2013-02-21 23:15:00,
2013-02-22 10:20:00,75.9,66.6,29.89,ENE,67,3.0,7.0,73,0.02,RA,,0.04,WeatherDisplay:10.37,2013-02-21 23:20:00,
2013-02-22 10:25:00,75.7,67.2,29.90,South,189,2.0,7.0,75,0.00,RA,,0.04,WeatherDisplay:10.37,2013-02-21 23:25:00,
2013-02-22 10:30:00,75.6,67.1,29.90,WSW,252,1.0,7.0,75,0.00,,,0.04,WeatherDisplay:10.37,2013-02-21 23:30:00,
2013-02-22 10:35:00,75.1,66.7,29.90,SW,216,5.0,10.0,75,0.00,,,0.04,WeatherDisplay:10.37,2013-02-21 23:35:00,
2013-02-22 10:40:00,74.7,66.2,29.89,SSW,202,2.0,8.0,75,0.00,,,0.04,WeatherDisplay:10.37,2013-02-21 23:40:00,
2013-02-22 10:45:00,74.3,65.9,29.90,SSW,194,2.0,8.0,75,0.00,,,0.04,WeatherDisplay:10.37,2013-02-21 23:45:00,
2013-02-22 10:50:00,74.1,65.7,29.90,SSW,200,5.0,13.0,75,0.00,,,0.04,WeatherDisplay:10.37,2013-02-21 23:50:00,
2013-02-22 10:55:00,73.9,65.9,29.89,SSW,200,2.0,8.0,76,0.02,RA,,0.06,WeatherDisplay:10.37,2013-02-21 23:55:00,
2013-02-22 11:00:00,73.4,65.3,29.89,East,89,2.0,8.0,76,0.00,RA,,0.06,WeatherDisplay:10.37,2013-02-22 00:00:00,
2013-02-22 11:05:00,73.2,65.6,29.89,SSE,161,2.0,9.0,77,0.00,,,0.06,WeatherDisplay:10.37,2013-02-22 00:05:00,
2013-02-22 11:10:00,73.2,65.9,29.88,South,176,2.0,11.0,78,0.00,,,0.06,WeatherDisplay:10.37,2013-02-22 00:10:00,
2013-02-22 11:15:00,73.2,65.9,29.88,East,100,3.0,8.0,78,0.00,,,0.06,WeatherDisplay:10.37,2013-02-22 00:15:00,
2013-02-22 11:20:00,73.6,66.3,29.88,SE,125,3.0,7.0,78,0.00,,,0.06,WeatherDisplay:10.37,2013-02-22 00:20:00,
2013-02-22 11:25:00,74.2,66.9,29.88,SSE,156,6.0,16.0,78,0.00,,,0.06,WeatherDisplay:10.37,2013-02-22 00:25:00,
2013-02-22 11:30:00,74.7,67.4,29.88,East,97,3.0,14.0,78,0.00,,,0.06,WeatherDisplay:10.37,2013-02-22 00:30:00,
2013-02-22 11:35:00,75.1,67.4,29.88,West,281,2.0,8.0,77,0.00,,,0.06,WeatherDisplay:10.37,2013-02-22 00:35:00,
2013-02-22 11:40:00,75.7,67.6,29.88,SW,223,5.0,13.0,76,0.00,,,0.06,WeatherDisplay:10.37,2013-02-22 00:40:00,
2013-02-22 11:45:00,75.9,67.0,29.88,SSE,163,6.0,13.0,74,0.00,,,0.06,WeatherDisplay:10.37,2013-02-22 00:45:00,
2013-02-22 11:50:00,75.9,66.6,29.88,SSE,150,5.0,9.0,73,0.00,,,0.06,WeatherDisplay:10.37,2013-02-22 00:50:00,
2013-02-22 11:55:00,75.7,66.5,29.88,SSE,164,3.0,7.0,73,0.00,CLR,,0.06,WeatherDisplay:10.37,2013-02-22 00:55:00,
2013-02-22 12:00:00,75.7,66.9,29.88,SSE,158,2.0,7.0,74,0.00,CLR,,0.06,WeatherDisplay:10.37,2013-02-22 01:00:00,
2013-02-22 12:05:00,75.9,67.4,29.88,East,89,3.0,7.0,75,0.00,CLR,,0.06,WeatherDisplay:10.37,2013-02-22 01:05:00,
2013-02-22 12:10:00,75.9,67.0,29.88,East,88,3.0,7.0,74,0.00,CLR,,0.06,WeatherDisplay:10.37,2013-02-22 01:10:00,
2013-02-22 12:15:00,75.7,67.2,29.88,NW,321,3.0,10.0,75,0.02,RA,,0.08,WeatherDisplay:10.37,2013-02-22 01:15:00,
2013-02-22 12:20:00,75.1,66.7,29.88,NNW,348,2.0,8.0,75,0.00,RA,,0.08,WeatherDisplay:10.37,2013-02-22 01:20:00,
2013-02-22 12:25:00,74.8,66.8,29.87,East,93,2.0,7.0,76,0.00,,,0.08,WeatherDisplay:10.37,2013-02-22 01:25:00,
2013-02-22 12:30:00,74.7,67.0,29.87,East,86,3.0,12.0,77,0.00,,,0.08,WeatherDisplay:10.37,2013-02-22 01:30:00,
2013-02-22 12:35:00,74.8,67.1,29.87,ESE,116,3.0,8.0,77,0.00,,,0.08,WeatherDisplay:10.37,2013-02-22 01:35:00,
2013-02-22 12:40:00,75.0,67.3,29.87,ESE,109,3.0,12.0,77,0.00,,,0.08,WeatherDisplay:10.37,2013-02-22 01:40:00,
2013-02-22 12:45:00,75.4,67.3,29.87,ESE,107,2.0,10.0,76,0.00,,,0.08,WeatherDisplay:10.37,2013-02-22 01:45:00,
2013-02-22 12:50:00,75.6,67.5,29.87,SSE,148,2.0,9.0,76,0.00,,,0.08,WeatherDisplay:10.37,2013-02-22 01:50:00,
2013-02-22 12:55:00,75.9,67.4,29.87,SE,140,5.0,12.0,75,0.00,,,0.08,WeatherDisplay:10.37,2013-02-22 01:55:00,
2013-02-22 13:00:00,76.1,67.2,29.86,SE,139,2.0,10.0,74,0.00,,,0.08,WeatherDisplay:10.37,2013-02-22 02:00:00,
2013-02-22 13:05:00,76.3,67.1,29.86,North,6,3.0,12.0,73,0.00,,,0.08,WeatherDisplay:10.37,2013-02-22 02:05:00,
2013-02-22 13:15:00,76.6,66.9,29.86,NW,322,5.0,10.0,72,0.00,CLR,,0.08,WeatherDisplay:10.37,2013-02-22 02:15:00,
2013-02-22 13:20:00,76.6,66.9,29.86,North,359,2.0,6.0,72,0.00,CLR,,0.08,WeatherDisplay:10.37,2013-02-22 02:20:00,
2013-02-22 13:25:00,76.6,66.9,29.86,NNW,347,2.0,9.0,72,0.00,CLR,,0.08,WeatherDisplay:10.37,2013-02-22 02:25:00,
2013-02-22 13:30:00,77.0,67.3,29.85,NNW,345,2.0,7.0,72,0.00,CLR,,0.08,WeatherDisplay:10.37,2013-02-22 02:30:00,
2013-02-22 13:35:00,77.5,67.8,29.85,South,170,2.0,11.0,72,0.00,CLR,,0.08,WeatherDisplay:10.37,2013-02-22 02:35:00,
2013-02-22 13:40:00,77.5,67.4,29.86,SE,134,7.0,14.0,71,0.00,CLR,,0.08,WeatherDisplay:10.37,2013-02-22 02:40:00,
2013-02-22 13:45:00,77.4,66.4,29.86,SE,136,6.0,13.0,69,0.00,CLR,,0.08,WeatherDisplay:10.37,2013-02-22 02:45:00,
2013-02-22 13:50:00,76.8,65.9,29.85,SSE,162,2.0,7.0,69,0.00,CLR,,0.08,WeatherDisplay:10.37,2013-02-22 02:50:00,
2013-02-22 13:55:00,76.8,65.9,29.85,South,173,5.0,8.0,69,0.00,CLR,,0.08,WeatherDisplay:10.37,2013-02-22 02:55:00,
2013-02-22 14:00:00,77.1,66.6,29.85,SSW,195,2.0,12.0,70,0.00,CLR,,0.08,WeatherDisplay:10.37,2013-02-22 03:00:00,
2013-02-22 14:05:00,77.5,67.0,29.85,South,175,5.0,13.0,70,0.00,CLR,,0.08,WeatherDisplay:10.37,2013-02-22 03:05:00,
2013-02-22 14:10:00,77.9,66.9,29.85,South,173,7.0,17.0,69,0.00,CLR,,0.08,WeatherDisplay:10.37,2013-02-22 03:10:00,
2013-02-22 14:15:00,77.7,66.7,29.85,SE,144,8.0,20.0,69,0.00,CLR,,0.08,WeatherDisplay:10.37,2013-02-22 03:15:00,
2013-02-22 14:20:00,77.5,66.6,29.85,SE,124,6.0,10.0,69,0.00,CLR,,0.08,WeatherDisplay:10.37,2013-02-22 03:20:00,
2013-02-22 14:25:00,77.1,66.1,29.85,SSE,159,2.0,12.0,69,0.00,CLR,,0.08,WeatherDisplay:10.37,2013-02-22 03:25:00,
2013-02-22 14:30:00,76.6,66.1,29.85,South,191,2.0,6.0,70,0.00,CLR,,0.08,WeatherDisplay:10.37,2013-02-22 03:30:00,
2013-02-22 14:35:00,75.9,66.2,29.85,SSW,211,1.0,7.0,72,0.00,CLR,,0.08,WeatherDisplay:10.37,2013-02-22 03:35:00,
2013-02-22 14:40:00,75.7,66.1,29.84,NE,53,2.0,6.0,72,0.00,CLR,,0.08,WeatherDisplay:10.37,2013-02-22 03:40:00,
2013-02-22 14:45:00,75.4,66.1,29.84,SW,225,2.0,5.0,73,0.00,CLR,,0.08,WeatherDisplay:10.37,2013-02-22 03:45:00,
2013-02-22 14:50:00,75.6,66.3,29.84,SW,216,2.0,8.0,73,0.00,CLR,,0.08,WeatherDisplay:10.37,2013-02-22 03:50:00,
2013-02-22 14:55:00,75.8,66.1,29.83,SSW,202,3.0,12.0,72,0.00,CLR,,0.08,WeatherDisplay:10.37,2013-02-22 03:55:00,
2013-02-22 15:00:00,75.8,65.7,29.84,South,191,6.0,17.0,71,0.00,CLR,,0.08,WeatherDisplay:10.37,2013-02-22 04:00:00,
2013-02-22 15:05:00,75.4,65.3,29.84,SE,138,3.0,10.0,71,0.00,CLR,,0.08,WeatherDisplay:10.37,2013-02-22 04:05:00,
2013-02-22 15:10:00,74.8,64.4,29.83,ENE,68,3.0,8.0,70,0.00,CLR,,0.08,WeatherDisplay:10.37,2013-02-22 04:10:00,
2013-02-22 15:15:00,74.4,64.0,29.83,ESE,119,7.0,14.0,70,0.00,CLR,,0.08,WeatherDisplay:10.37,2013-02-22 04:15:00,
2013-02-22 15:20:00,74.1,63.7,29.83,SSW,210,2.0,12.0,70,0.00,CLR,,0.08,WeatherDisplay:10.37,2013-02-22 04:20:00,
2013-02-22 15:25:00,74.0,64.0,29.83,South,184,3.0,10.0,71,0.00,CLR,,0.08,WeatherDisplay:10.37,2013-02-22 04:25:00,
2013-02-22 15:30:00,74.1,64.5,29.83,SE,139,0.0,6.0,72,0.00,CLR,,0.08,WeatherDisplay:10.37,2013-02-22 04:30:00,
2013-02-22 15:35:00,73.9,64.7,29.83,East,90,3.0,7.0,73,0.00,CLR,,0.08,WeatherDisplay:10.37,2013-02-22 04:35:00,
2013-02-22 15:40:00,73.9,65.1,29.83,ENE,70,2.0,7.0,74,0.00,CLR,,0.08,WeatherDisplay:10.37,2013-02-22 04:40:00,
2013-02-22 15:45:00,73.6,65.2,29.83,ENE,71,5.0,10.0,75,0.00,CLR,,0.08,WeatherDisplay:10.37,2013-02-22 04:45:00,
2013-02-22 15:50:00,73.2,65.2,29.84,NNW,347,8.0,18.0,76,0.00,CLR,,0.08,WeatherDisplay:10.37,2013-02-22 04:50:00,
2013-02-22 15:55:00,72.7,65.1,29.83,SE,132,5.0,10.0,77,0.02,RA,,0.10,WeatherDisplay:10.37,2013-02-22 04:55:00,
2013-02-22 16:00:00,71.9,64.3,29.83,SE,139,3.0,15.0,77,0.02,RA,,0.12,WeatherDisplay:10.37,2013-02-22 05:00:00,
2013-02-22 16:05:00,71.4,63.8,29.83,South,190,7.0,12.0,77,0.02,RA,,0.14,WeatherDisplay:10.37,2013-02-22 05:05:00,
2013-02-22 16:10:00,70.9,63.7,29.83,SSW,201,3.0,12.0,78,0.02,RA,,0.16,WeatherDisplay:10.37,2013-02-22 05:10:00,
2013-02-22 16:15:00,70.5,63.3,29.83,SE,141,3.0,12.0,78,0.02,RA,,0.18,WeatherDisplay:10.37,2013-02-22 05:15:00,
2013-02-22 16:20:00,70.3,63.4,29.82,SSW,196,3.0,8.0,79,0.00,RA,,0.18,WeatherDisplay:10.37,2013-02-22 05:20:00,
2013-02-22 16:25:00,70.2,63.8,29.83,SSW,208,5.0,8.0,80,0.00,,,0.18,WeatherDisplay:10.37,2013-02-22 05:25:00,
2013-02-22 16:30:00,70.3,63.9,29.82,SSW,205,3.0,4.0,80,0.00,,,0.18,WeatherDisplay:10.37,2013-02-22 05:30:00,
2013-02-22 16:35:00,70.3,63.9,29.82,South,191,6.0,12.0,80,0.00,,,0.18,WeatherDisplay:10.37,2013-02-22 05:35:00,
2013-02-22 16:40:00,70.5,64.0,29.82,South,189,3.0,11.0,80,0.00,,,0.18,WeatherDisplay:10.37,2013-02-22 05:40:00,
2013-02-22 16:45:00,70.5,64.4,29.83,South,175,3.0,12.0,81,0.00,,,0.18,WeatherDisplay:10.37,2013-02-22 05:45:00,
2013-02-22 16:50:00,70.7,64.6,29.83,South,169,5.0,10.0,81,0.00,,,0.18,WeatherDisplay:10.37,2013-02-22 05:50:00,
2013-02-22 16:55:00,70.5,64.0,29.83,NE,44,3.0,9.0,80,0.00,,,0.18,WeatherDisplay:10.37,2013-02-22 05:55:00,
2013-02-22 17:00:00,70.3,64.2,29.83,NE,48,2.0,8.0,81,0.02,RA,,0.20,WeatherDisplay:10.37,2013-02-22 06:00:00,
2013-02-22 17:05:00,70.2,64.4,29.83,ENE,65,2.0,15.0,82,0.00,RA,,0.20,WeatherDisplay:10.37,2013-02-22 06:05:00,
2013-02-22 17:10:00,70.0,64.2,29.84,ENE,66,5.0,9.0,82,0.00,,,0.20,WeatherDisplay:10.37,2013-02-22 06:10:00,
2013-02-22 17:15:00,69.6,63.5,29.83,WSW,244,1.0,6.0,81,0.02,RA,,0.22,WeatherDisplay:10.37,2013-02-22 06:15:00,
2013-02-22 17:20:00,69.6,63.5,29.82,WSW,253,0.0,7.0,81,0.00,RA,,0.22,WeatherDisplay:10.37,2013-02-22 06:20:00,
2013-02-22 17:25:00,69.6,63.2,29.82,SW,224,1.0,6.0,80,0.00,,,0.22,WeatherDisplay:10.37,2013-02-22 06:25:00,
2013-02-22 17:30:00,69.6,63.2,29.83,WNW,296,3.0,10.0,80,0.02,RA,,0.24,WeatherDisplay:10.37,2013-02-22 06:30:00,
2013-02-22 17:35:00,69.4,63.4,29.83,NNE,25,3.0,10.0,81,0.00,RA,,0.24,WeatherDisplay:10.37,2013-02-22 06:35:00,
2013-02-22 17:40:00,69.4,63.4,29.83,ENE,78,1.0,10.0,81,0.00,,,0.24,WeatherDisplay:10.37,2013-02-22 06:40:00,
2013-02-22 17:45:00,69.3,63.6,29.82,ESE,104,1.0,6.0,82,0.00,,,0.24,WeatherDisplay:10.37,2013-02-22 06:45:00,
2013-02-22 17:50:00,69.4,63.7,29.82,SE,124,3.0,7.0,82,0.00,,,0.24,WeatherDisplay:10.37,2013-02-22 06:50:00,
2013-02-22 17:55:00,69.4,63.7,29.82,SE,134,5.0,15.0,82,0.00,,,0.24,WeatherDisplay:10.37,2013-02-22 06:55:00,
2013-02-22 18:00:00,69.4,63.4,29.82,ESE,105,2.0,6.0,81,0.00,,,0.24,WeatherDisplay:10.37,2013-02-22 07:00:00,
2013-02-22 18:05:00,69.6,63.5,29.82,East,79,1.0,6.0,81,0.00,,,0.24,WeatherDisplay:10.37,2013-02-22 07:05:00,
2013-02-22 18:10:00,69.6,63.5,29.83,East,79,2.0,8.0,81,0.00,,,0.24,WeatherDisplay:10.37,2013-02-22 07:10:00,
2013-02-22 18:15:00,69.6,63.5,29.83,ESE,103,1.0,8.0,81,0.00,,,0.24,WeatherDisplay:10.37,2013-02-22 07:15:00,
2013-02-22 18:20:00,69.6,63.9,29.83,ESE,119,0.0,8.0,82,0.00,,,0.24,WeatherDisplay:10.37,2013-02-22 07:20:00,
2013-02-22 18:25:00,69.9,64.2,29.83,East,88,1.0,4.0,82,0.00,,,0.24,WeatherDisplay:10.37,2013-02-22 07:25:00,
2013-02-22 18:30:00,70.0,64.2,29.83,NE,52,1.0,5.0,82,0.00,CLR,,0.24,WeatherDisplay:10.37,2013-02-22 07:30:00,
2013-02-22 18:35:00,70.0,64.2,29.83,ENE,75,0.0,5.0,82,0.00,CLR,,0.24,WeatherDisplay:10.37,2013-02-22 07:35:00,
2013-02-22 18:40:00,70.2,64.5,29.83,East,90,2.0,7.0,82,0.00,CLR,,0.24,WeatherDisplay:10.37,2013-02-22 07:40:00,
2013-02-22 18:45:00,70.3,64.6,29.83,ESE,116,0.0,5.0,82,0.00,CLR,,0.24,WeatherDisplay:10.37,2013-02-22 07:45:00,
2013-02-22 18:50:00,70.3,64.6,29.83,ESE,107,3.0,8.0,82,0.00,CLR,,0.24,WeatherDisplay:10.37,2013-02-22 07:50:00,
2013-02-22 18:55:00,70.3,64.2,29.83,ENE,74,3.0,7.0,81,0.00,CLR,,0.24,WeatherDisplay:10.37,2013-02-22 07:55:00,
2013-02-22 19:00:00,70.3,64.2,29.83,East,92,2.0,6.0,81,0.00,CLR,,0.24,WeatherDisplay:10.37,2013-02-22 08:00:00,
2013-02-22 19:05:00,70.4,63.9,29.83,East,83,3.0,10.0,80,0.00,CLR,,0.24,WeatherDisplay:10.37,2013-02-22 08:05:00,
2013-02-22 19:10:00,70.5,64.4,29.83,NE,49,3.0,9.0,81,0.00,CLR,,0.24,WeatherDisplay:10.37,2013-02-22 08:10:00,
2013-02-22 19:15:00,70.3,64.2,29.84,ENE,70,5.0,8.0,81,0.00,CLR,,0.24,WeatherDisplay:10.37,2013-02-22 08:15:00,
2013-02-22 19:20:00,70.3,64.2,29.84,ENE,70,3.0,32.0,81,0.02,RA,,0.26,WeatherDisplay:10.37,2013-02-22 08:20:00,
2013-02-22 19:25:00,70.2,64.1,29.84,ENE,57,2.0,12.0,81,0.00,RA,,0.26,WeatherDisplay:10.37,2013-02-22 08:25:00,
2013-02-22 19:30:00,69.9,63.5,29.84,ENE,76,5.0,7.0,80,0.00,,,0.26,WeatherDisplay:10.37,2013-02-22 08:30:00,
2013-02-22 19:35:00,69.6,63.2,29.84,East,95,1.0,4.0,80,0.00,,,0.26,WeatherDisplay:10.37,2013-02-22 08:35:00,
2013-02-22 19:40:00,69.6,63.2,29.84,ESE,120,0.0,5.0,80,0.00,,,0.26,WeatherDisplay:10.37,2013-02-22 08:40:00,
2013-02-22 19:45:00,69.4,63.0,29.84,SE,131,1.0,4.0,80,0.00,,,0.26,WeatherDisplay:10.37,2013-02-22 08:45:00,
2013-02-22 19:50:00,69.4,63.0,29.84,SE,138,0.0,5.0,80,0.00,,,0.26,WeatherDisplay:10.37,2013-02-22 08:50:00,
2013-02-22 19:55:00,69.4,63.0,29.85,SE,126,3.0,5.0,80,0.00,,,0.26,WeatherDisplay:10.37,2013-02-22 08:55:00,
2013-02-22 20:00:00,69.3,62.8,29.85,ESE,122,5.0,13.0,80,0.02,RA,,0.28,WeatherDisplay:10.37,2013-02-22 09:00:00,
2013-02-22 20:05:00,69.0,62.2,29.85,ESE,113,1.0,7.0,79,0.00,RA,,0.28,WeatherDisplay:10.37,2013-02-22 09:05:00,
2013-02-22 20:10:00,68.5,62.1,29.84,East,86,1.0,5.0,80,0.00,,,0.28,WeatherDisplay:10.37,2013-02-22 09:10:00,
2013-02-22 20:15:00,68.4,61.9,29.84,SSE,158,1.0,7.0,80,0.02,RA,,0.30,WeatherDisplay:10.37,2013-02-22 09:15:00,
2013-02-22 20:20:00,68.2,61.8,29.84,South,191,1.0,6.0,80,0.00,RA,,0.30,WeatherDisplay:10.37,2013-02-22 09:20:00,
2013-02-22 20:25:00,68.2,61.8,29.84,SSE,157,2.0,5.0,80,0.00,,,0.30,WeatherDisplay:10.37,2013-02-22 09:25:00,
2013-02-22 20:30:00,68.2,62.1,29.85,East,81,7.0,13.0,81,0.00,,,0.30,WeatherDisplay:10.37,2013-02-22 09:30:00,
2013-02-22 20:35:00,68.2,62.5,29.85,ESE,112,3.0,7.0,82,0.02,RA,,0.32,WeatherDisplay:10.37,2013-02-22 09:35:00,
2013-02-22 20:40:00,67.8,62.1,29.85,SSE,147,3.0,10.0,82,0.02,RA,,0.34,WeatherDisplay:10.37,2013-02-22 09:40:00,
2013-02-22 20:45:00,67.6,61.9,29.85,SE,146,2.0,7.0,82,0.02,RA,,0.36,WeatherDisplay:10.37,2013-02-22 09:45:00,
2013-02-22 20:50:00,67.3,61.6,29.85,ENE,71,2.0,5.0,82,0.02,RA,,0.38,WeatherDisplay:10.37,2013-02-22 09:50:00,
2013-02-22 20:55:00,67.1,61.4,29.85,ESE,104,2.0,6.0,82,0.00,RA,,0.38,WeatherDisplay:10.37,2013-02-22 09:55:00,
2013-02-22 21:00:00,67.0,61.7,29.85,SSE,154,1.0,7.0,83,0.00,,,0.38,WeatherDisplay:10.37,2013-02-22 10:00:00,
2013-02-22 21:10:00,67.1,62.1,29.84,ESE,117,1.0,7.0,84,0.00,,,0.38,WeatherDisplay:10.37,2013-02-22 10:10:00,
2013-02-22 21:20:00,67.5,62.5,29.84,East,99,1.0,5.0,84,0.00,,,0.38,WeatherDisplay:10.37,2013-02-22 10:20:00,
2013-02-22 21:25:00,67.6,62.6,29.85,SE,127,1.0,5.0,84,0.00,,,0.38,WeatherDisplay:10.37,2013-02-22 10:25:00,
2013-02-22 21:30:00,67.8,62.8,29.84,SSE,159,2.0,8.0,84,0.00,,,0.38,WeatherDisplay:10.37,2013-02-22 10:30:00,
2013-02-22 21:35:00,67.9,63.2,29.84,SE,145,3.0,8.0,85,0.00,,,0.38,WeatherDisplay:10.37,2013-02-22 10:35:00,
2013-02-22 21:40:00,68.2,63.5,29.84,East,99,1.0,6.0,85,0.02,RA,,0.40,WeatherDisplay:10.37,2013-02-22 10:40:00,
2013-02-22 21:45:00,68.4,63.7,29.84,SSE,152,3.0,10.0,85,0.00,RA,,0.40,WeatherDisplay:10.37,2013-02-22 10:45:00,
2013-02-22 21:50:00,68.5,63.8,29.84,SSE,159,2.0,10.0,85,0.00,,,0.40,WeatherDisplay:10.37,2013-02-22 10:50:00,
2013-02-22 21:55:00,68.6,64.0,29.85,South,178,2.0,9.0,85,0.00,,,0.40,WeatherDisplay:10.37,2013-02-22 10:55:00,
2013-02-22 22:00:00,68.7,63.6,29.84,ESE,113,3.0,9.0,84,0.00,,,0.40,WeatherDisplay:10.37,2013-02-22 11:00:00,
2013-02-22 22:05:00,68.5,63.5,29.88,SSE,155,5.0,9.0,84,0.00,,,0.40,WeatherDisplay:10.37,2013-02-22 11:05:00,
2013-02-22 22:10:00,68.5,63.2,29.84,SE,134,2.0,6.0,83,0.00,,,0.40,WeatherDisplay:10.37,2013-02-22 11:10:00,
2013-02-22 22:15:00,68.4,63.0,29.84,ESE,110,1.0,6.0,83,0.00,,,0.40,WeatherDisplay:10.37,2013-02-22 11:15:00,
2013-02-22 22:20:00,68.4,62.6,29.84,ESE,106,2.0,6.0,82,0.00,,,0.40,WeatherDisplay:10.37,2013-02-22 11:20:00,
2013-02-22 22:25:00,68.4,62.6,29.84,SE,131,2.0,5.0,82,0.00,,,0.40,WeatherDisplay:10.37,2013-02-22 11:25:00,
2013-02-22 22:30:00,68.4,62.6,29.84,ESE,110,1.0,6.0,82,0.00,,,0.40,WeatherDisplay:10.37,2013-02-22 11:30:00,
2013-02-22 22:35:00,68.4,62.6,29.84,ESE,118,2.0,5.0,82,0.00,,,0.40,WeatherDisplay:10.37,2013-02-22 11:35:00,
2013-02-22 22:40:00,68.5,62.8,29.84,South,176,2.0,7.0,82,0.00,CLR,,0.40,WeatherDisplay:10.37,2013-02-22 11:40:00,
2013-02-22 22:45:00,68.5,63.2,29.83,SSE,161,1.0,8.0,83,0.00,CLR,,0.40,WeatherDisplay:10.37,2013-02-22 11:45:00,
2013-02-22 22:50:00,68.7,63.3,29.83,SE,135,0.0,3.0,83,0.00,CLR,,0.40,WeatherDisplay:10.37,2013-02-22 11:50:00,
2013-02-22 22:55:00,68.7,63.7,29.84,SE,125,0.0,4.0,84,0.00,CLR,,0.40,WeatherDisplay:10.37,2013-02-22 11:55:00,
2013-02-22 23:00:00,68.7,63.7,29.84,West,270,2.0,12.0,84,0.02,RA,,0.42,WeatherDisplay:10.37,2013-02-22 12:00:00,
2013-02-22 23:05:00,68.9,63.9,29.84,South,175,3.0,11.0,84,0.00,RA,,0.42,WeatherDisplay:10.37,2013-02-22 12:05:00,
2013-02-22 23:10:00,68.9,63.9,29.84,SE,134,2.0,12.0,84,0.00,,,0.42,WeatherDisplay:10.37,2013-02-22 12:10:00,
2013-02-22 23:15:00,68.7,63.3,29.83,West,280,1.0,10.0,83,0.02,RA,,0.44,WeatherDisplay:10.37,2013-02-22 12:15:00,
2013-02-22 23:20:00,68.7,63.0,29.83,SSW,210,1.0,7.0,82,0.00,RA,,0.44,WeatherDisplay:10.37,2013-02-22 12:20:00,
2013-02-22 23:25:00,68.5,62.8,29.83,SE,142,0.0,8.0,82,0.00,,,0.44,WeatherDisplay:10.37,2013-02-22 12:25:00,
2013-02-22 23:30:00,68.5,63.2,29.83,SSE,168,6.0,10.0,83,0.02,RA,,0.46,WeatherDisplay:10.37,2013-02-22 12:30:00,
2013-02-22 23:35:00,68.5,63.2,29.83,SSE,163,3.0,10.0,83,0.00,RA,,0.46,WeatherDisplay:10.37,2013-02-22 12:35:00,
2013-02-22 23:40:00,68.5,63.1,29.83,SSE,152,2.0,8.0,83,0.00,,,0.46,WeatherDisplay:10.37,2013-02-22 12:40:00,
2013-02-22 23:45:00,68.5,63.5,29.82,SSE,167,0.0,5.0,84,0.02,RA,,0.48,WeatherDisplay:10.37,2013-02-22 12:45:00,
2013-02-22 23:50:00,68.5,63.5,29.82,SSW,196,2.0,5.0,84,0.00,RA,,0.48,WeatherDisplay:10.37,2013-02-22 12:50:00,
2013-02-22 23:55:00,68.5,63.8,29.82,South,171,3.0,5.0,85,0.00,,,0.48,WeatherDisplay:10.37,2013-02-22 12:55:00,